Home > Weather > Tábor > Past weeks

Flag for Czech Republic Past Weather in Tábor, Czech Republic — Yesterday and Last 2 Weeks

Now
79 °F

Sunny.


Feels Like: 79 °F
Forecast: 60 / 80 °F
Wind: 5 mph from Southeast

Location: Kocelovice

Current Time: Aug 25, 2016 at 6:55:00 PM

Latest Report: Aug 25, 2016 at 6:00 PM


Visibility: 44 mi

Pressure: 30.09 "Hg

Humidity: 37%

Dew Point: 50 °F

Location of TáborLocation

Past Weather in Tábor — Graph

°F

Tábor Temperature Yesterday

Maximum temperature yesterday: 78 °F (at 4:00 PM)
Minimum temperature yesterday: 58 °F (at 6:00 AM)
Average temperature yesterday: 69 °F

High & Low Weather Summary for the Past Weeks

 TemperatureHumidityPressure
High81 °F (Aug 20, 5:00 PM)100% (Aug 11, 3:00 AM)30.41 "Hg (Aug 11, 3:00 AM)
Low43 °F (Aug 11, 5:00 AM)33% (Aug 19, 2:00 PM)29.75 "Hg (Aug 18, 5:00 PM)
Average62 °F70%30.12 "Hg
* Reported Aug 10 5:00 PM — Aug 25 5:00 PM, Tábor, Weather by CustomWeather, © 2016

Note: Actual official high and low records may vary slightly from our data, if they occured in-between our weather recording intervals... More about our weather records

Advertising

Tábor Weather History for the Previous 24 Hours

Scroll right to see more
 ConditionsComfort  
Time TempWeatherWind HumidityBarometerVisibility
5:00 PM
Thu, Aug 25
80 °FSunny.6 mph38%30.10 "Hg43 mi
4:00 PM80 °FSunny.6 mph38%30.11 "Hg40 mi
3:00 PM80 °FSunny.6 mph40%30.11 "Hg40 mi
2:00 PM78 °FSunny.6 mph46%30.14 "Hg40 mi
1:00 PM75 °FSunny.5 mph51%30.16 "Hg34 mi
12:00 PM74 °FSunny.6 mph54%30.18 "Hg31 mi
11:00 AM71 °FSunny.5 mph62%30.20 "Hg28 mi
10:00 AM68 °FSunny.5 mph69%30.21 "Hg25 mi
9:00 AM65 °FSunny.5 mph75%30.22 "Hg22 mi
8:00 AM62 °FSunny.5 mph83%30.23 "Hg19 mi
7:00 AM56 °FCool.3 mph91%30.26 "Hg7 mi
6:00 AM55 °FCool.3 mph94%30.26 "Hg6 mi
5:00 AM55 °FCool.3 mph92%30.26 "Hg10 mi
4:00 AM57 °FCool.3 mph89%30.25 "Hg12 mi
3:00 AM58 °FCool.5 mph86%30.25 "Hg12 mi
2:00 AM59 °FCool.3 mph81%30.26 "Hg12 mi
1:00 AM62 °FCool.2 mph74%30.25 "Hg12 mi
12:00 AM63 °FMild.2 mph71%30.25 "Hg12 mi
11:00 PM
Wed, Aug 24
62 °FCool.2 mph74%30.25 "Hg12 mi
10:00 PM63 °FClear.3 mph72%30.26 "Hg47 mi
9:00 PM67 °FClear.2 mph62%30.24 "Hg47 mi
8:00 PM70 °FSunny.3 mph57%30.23 "Hg47 mi
7:00 PM75 °FSunny.3 mph48%30.21 "Hg43 mi
6:00 PM78 °FSunny.3 mph44%30.21 "Hg43 mi
Weather by CustomWeather, © 2016

See weather overviewHow to use our weather pages